• In Spain
  • List of Countries
  • For 7 days
  • Water Temperature
  • Satellite Maps
  • Weather Map
  • Weather Widgets
  • user-avatar
    Login

    Hourly Weather Pamporovo

    Today, 14 November, Wednesday

    Time Temperature Precipitation Wind Pressure Humidity
    00:00 0°C° 0 mm 1 mps 630 mmHg 85%
    01:00 -1°C° 0 mm 1 mps 630 mmHg 84%
    02:00 -1°C° 0 mm 1 mps 630 mmHg 83%
    03:00 -1°C° 0 mm 1 mps 629 mmHg 82%
    04:00 -1°C° 0 mm 1 mps 629 mmHg 81%
    05:00 -1°C° 0 mm 1 mps 629 mmHg 80%
    06:00 -1°C° 0 mm 1 mps 629 mmHg 77%
    07:00 -1°C° 0 mm 1 mps 629 mmHg 74%
    08:00 0°C° 0 mm 1 mps 629 mmHg 71%
    09:00 +2°C° 0 mm 1 mps 629 mmHg 64%
    10:00 +4°C° 0 mm 1 mps 630 mmHg 57%
    11:00 +6°C° 0 mm 1 mps 631 mmHg 50%
    12:00 +7°C° 0 mm 1 mps 631 mmHg 49%
    13:00 +7°C° 0 mm 1 mps 631 mmHg 48%
    14:00 +7°C° 0 mm 2 mps 630 mmHg 48%
    15:00 +6°C° 0 mm 1 mps 630 mmHg 55%
    16:00 +5°C° 0 mm 1 mps 629 mmHg 62%
    17:00 +4°C° 0 mm 1 mps 628 mmHg 69%
    18:00 +3°C° 0 mm 1 mps 628 mmHg 73%
    19:00 +2°C° 0 mm 1 mps 628 mmHg 76%
    20:00 +1°C° 0 mm 1 mps 628 mmHg 80%
    21:00 +1°C° 0 mm 1 mps 628 mmHg 82%
    22:00 +1°C° 0 mm 1 mps 628 mmHg 83%
    23:00 +1°C° 0 mm 1 mps 628 mmHg 84%

    Tomorrow, 15 November, Thursday

    Time Temperature Precipitation Wind Pressure Humidity
    00:00 +1°C° 0 mm 1 mps 627 mmHg 85%
    01:00 0°C° 0 mm 1 mps 627 mmHg 85%
    02:00 0°C° 0 mm 1 mps 627 mmHg 86%
    03:00 0°C° 0 mm 1 mps 627 mmHg 85%
    04:00 0°C° 0 mm 1 mps 626 mmHg 84%
    05:00 -1°C° 0 mm 1 mps 626 mmHg 84%
    06:00 0°C° 0.2 mm 1 mps 626 mmHg 83%
    07:00 -2°C° 0.2 mm 2 mps 626 mmHg 81%
    08:00 -2°C° 0.2 mm 2 mps 627 mmHg 80%
    09:00 -2°C° 0.7 mm 3 mps 627 mmHg 78%
    10:00 -1°C° 0.7 mm 3 mps 628 mmHg 76%
    11:00 -2°C° 0.7 mm 4 mps 628 mmHg 73%
    12:00 -1°C° 0 mm 4 mps 628 mmHg 68%
    13:00 -1°C° 0 mm 5 mps 628 mmHg 62%
    14:00 0°C° 0 mm 5 mps 628 mmHg 56%
    15:00 -1°C° 0 mm 4 mps 628 mmHg 59%
    16:00 -1°C° 0 mm 3 mps 627 mmHg 62%
    17:00 -2°C° 0 mm 3 mps 627 mmHg 66%
    18:00 -2°C° 0 mm 3 mps 627 mmHg 69%
    19:00 -3°C° 0 mm 2 mps 627 mmHg 72%
    20:00 -4°C° 0 mm 2 mps 627 mmHg 76%
    21:00 -4°C° 0 mm 2 mps 627 mmHg 76%
    22:00 -4°C° 0 mm 2 mps 627 mmHg 75%
    23:00 -5°C° 0 mm 2 mps 627 mmHg 75%

    Day after tomorrow, 16 November, Friday

    Time Temperature Precipitation Wind Pressure Humidity
    00:00 -5°C° 0 mm 2 mps 627 mmHg 74%
    01:00 -5°C° 0 mm 2 mps 627 mmHg 72%
    02:00 -5°C° 0 mm 2 mps 627 mmHg 71%
    03:00 -5°C° 0 mm 2 mps 627 mmHg 72%
    04:00 -5°C° 0 mm 2 mps 627 mmHg 73%
    05:00 -5°C° 0 mm 2 mps 627 mmHg 74%
    06:00 -5°C° 0 mm 2 mps 627 mmHg 75%
    07:00 -5°C° 0 mm 2 mps 628 mmHg 76%
    08:00 -5°C° 0 mm 2 mps 628 mmHg 76%
    09:00 -4°C° 0 mm 2 mps 629 mmHg 70%
    10:00 -2°C° 0 mm 3 mps 629 mmHg 65%
    11:00 -1°C° 0 mm 3 mps 630 mmHg 59%
    12:00 -1°C° 0 mm 3 mps 630 mmHg 57%
    13:00 -1°C° 0 mm 4 mps 630 mmHg 54%
    14:00 -1°C° 0 mm 4 mps 630 mmHg 52%
    15:00 -2°C° 0 mm 4 mps 630 mmHg 56%
    16:00 -2°C° 0 mm 3 mps 629 mmHg 61%
    17:00 -4°C° 0 mm 3 mps 629 mmHg 66%
    18:00 -5°C° 0.1 mm 3 mps 629 mmHg 69%
    19:00 -5°C° 0.1 mm 3 mps 629 mmHg 73%
    20:00 -6°C° 0.1 mm 3 mps 629 mmHg 76%
    21:00 -6°C° 0 mm 3 mps 629 mmHg 76%
    22:00 -7°C° 0 mm 3 mps 629 mmHg 76%
    23:00 -6°C° 0 mm 2 mps 629 mmHg 76%

    17 November, Saturday

    Time Temperature Precipitation Wind Pressure Humidity
    00:00 -6°C° 0 mm 2 mps 629 mmHg 76%
    01:00 -7°C° 0 mm 2 mps 629 mmHg 77%
    02:00 -7°C° 0 mm 2 mps 629 mmHg 78%
    03:00 -8°C° 0 mm 2 mps 629 mmHg 78%
    04:00 -8°C° 0 mm 2 mps 629 mmHg 79%
    05:00 -8°C° 0 mm 2 mps 628 mmHg 79%
    06:00 -8°C° 0 mm 2 mps 629 mmHg 77%
    07:00 -8°C° 0 mm 2 mps 629 mmHg 75%
    08:00 -8°C° 0 mm 2 mps 629 mmHg 73%
    09:00 -6°C° 0 mm 2 mps 630 mmHg 66%
    10:00 -6°C° 0 mm 3 mps 630 mmHg 59%
    11:00 -4°C° 0 mm 3 mps 631 mmHg 52%
    12:00 -4°C° 0 mm 3 mps 631 mmHg 51%
    13:00 -2°C° 0 mm 2 mps 631 mmHg 50%
    14:00 -2°C° 0 mm 2 mps 631 mmHg 48%
    15:00 -3°C° 0 mm 2 mps 630 mmHg 54%
    16:00 -4°C° 0 mm 2 mps 630 mmHg 59%
    17:00 -5°C° 0 mm 2 mps 629 mmHg 65%
    18:00 -6°C° 0 mm 2 mps 629 mmHg 69%
    19:00 -7°C° 0 mm 2 mps 629 mmHg 72%
    20:00 -7°C° 0 mm 2 mps 629 mmHg 76%
    21:00 -8°C° 0 mm 2 mps 629 mmHg 78%
    22:00 -8°C° 0 mm 2 mps 629 mmHg 79%
    23:00 -8°C° 0 mm 2 mps 629 mmHg 81%

    18 November, Sunday

    Time Temperature Precipitation Wind Pressure Humidity
    00:00 -8°C° 0 mm 2 mps 629 mmHg 81%
    01:00 -8°C° 0 mm 2 mps 629 mmHg 81%
    02:00 -8°C° 0 mm 2 mps 629 mmHg 81%
    03:00 -8°C° 0 mm 2 mps 628 mmHg 81%
    04:00 -8°C° 0 mm 2 mps 628 mmHg 80%
    05:00 -8°C° 0 mm 2 mps 628 mmHg 80%
    06:00 -8°C° 0 mm 2 mps 628 mmHg 79%
    07:00 -7°C° 0 mm 2 mps 628 mmHg 78%
    08:00 -7°C° 0 mm 2 mps 628 mmHg 77%
    09:00 -6°C° 0 mm 2 mps 629 mmHg 71%
    10:00 -4°C° 0 mm 2 mps 629 mmHg 64%
    11:00 -2°C° 0 mm 2 mps 630 mmHg 58%
    12:00 -2°C° 0 mm 2 mps 629 mmHg 57%
    13:00 -1°C° 0 mm 2 mps 629 mmHg 55%
    14:00 -1°C° 0 mm 2 mps 628 mmHg 54%
    15:00 -2°C° 0 mm 2 mps 627 mmHg 59%
    16:00 -3°C° 0 mm 2 mps 627 mmHg 65%
    17:00 -3°C° 0 mm 1 mps 626 mmHg 70%
    18:00 -5°C° 0 mm 2 mps 625 mmHg 72%
    19:00 -6°C° 0 mm 2 mps 625 mmHg 74%
    20:00 -6°C° 0 mm 2 mps 625 mmHg 76%
    21:00 -4°C° 0 mm 1 mps 624 mmHg 74%
    22:00 -4°C° 0 mm 1 mps 624 mmHg 73%
    23:00 -4°C° 0 mm 1 mps 624 mmHg 71%

    19 November, Monday

    Time Temperature Precipitation Wind Pressure Humidity
    00:00 -4°C° 0 mm 1 mps 623 mmHg 70%
    01:00 -4°C° 0 mm 1 mps 623 mmHg 69%
    02:00 -4°C° 0 mm 1 mps 622 mmHg 68%
    03:00 -3°C° 0 mm 1 mps 622 mmHg 68%
    04:00 -3°C° 0 mm 1 mps 622 mmHg 68%
    05:00 -3°C° 0 mm 1 mps 621 mmHg 68%
    06:00 -3°C° 0 mm 1 mps 621 mmHg 68%
    07:00 -3°C° 0 mm 1 mps 621 mmHg 69%
    08:00 -3°C° 0 mm 1 mps 621 mmHg 70%
    09:00 -2°C° 0 mm 1 mps 621 mmHg 67%
    10:00 -1°C° 0 mm 1 mps 622 mmHg 65%
    11:00 -2°C° 0 mm 2 mps 622 mmHg 63%
    12:00 -2°C° 0 mm 2 mps 622 mmHg 64%
    13:00 -1°C° 0 mm 2 mps 621 mmHg 65%
    14:00 -1°C° 0 mm 2 mps 621 mmHg 66%
    15:00 -2°C° 0.1 mm 2 mps 621 mmHg 71%
    16:00 -3°C° 0.1 mm 2 mps 620 mmHg 76%
    17:00 -1°C° 0.1 mm 1 mps 620 mmHg 80%
    18:00 -2°C° 0.2 mm 1 mps 620 mmHg 82%
    19:00 -2°C° 0.2 mm 1 mps 620 mmHg 84%
    20:00 -2°C° 0.2 mm 1 mps 620 mmHg 86%
    21:00 -2°C° 0.2 mm 1 mps 619 mmHg 86%
    22:00 -2°C° 0.2 mm 1 mps 619 mmHg 87%
    23:00 -2°C° 0.2 mm 1 mps 619 mmHg 87%
    Show more